Presure
171 178 177 156 169 168 150 149 156 151 149 96 152 148 147 146 153 160 162 103 110 111 151 173 167 158 98 97 89 110 86 146 138 133 133 126 138 146 100 95 95 92 99 119 174 156 172 128 167
173 136 142 145 139 146 144 145 151 153 156 161 142 138 135 131 163 156 152 161 164 167 137 168 161 99 82 78 106 88 91 90 146 135 144 127 133 133 153 147 127 133 152 101 149 172 161 137 154
138 140 135 133 141 143 137 146 139 151 152 159 157 163 160 162 172 169 167 170 172 170 170 170 177 141 82 77 96 111 122 90 164 142 134 134 124 155 138 151 148 151 152 110 117 125 173 171 102
146 152 149 152 163 153 135 145 153 153 158 157 162 166 156 160 161 161 169 173 176 182 182 178 167 172 137 163 87 78 83 81 125 150 157 143 137 118 137 135 133 144 108 153 153 159 109 107 153
160 156 141 142 152 157 156 158 151 161 160 167 175 177 182 195 187 182 184 176 181 182 181 187 176 186 181 106 143 178 173 124 93 164 84 146 143 141 120 130 136 134 137 142 147 153 111 111 166
229 193 163 161 157 155 162 162 166 171 170 186 180 204 219 233 229 226 224 216 211 205 198 193 191 184 181 172 178 109 172 129 83 125 144 115 127 133 133 135 138 138 136 136 139 148 150 157 156
220 223 224 213 174 170 169 170 167 185 215 221 226 222 222 209 208 205 213 210 204 211 216 224 208 202 185 189 170 175 175 178 135 136 90 161 141 101 137 132 132 132 133 133 133 137 116 115 115
201 208 213 216 220 221 219 218 219 216 214 215 211 211 188 195 188 192 190 200 208 193 193 190 208 228 203 191 191 187 175 175 86 126 131 127 137 123 139 139 136 127 131 135 134 134 141 149 149
217 193 194 197 199 201 201 201 204 201 200 179 180 179 178 177 175 164 151 149 151 197 183 190 214 203 212 206 196 185 192 179 178 181 130 133 128 134 125 134 139 139 135 139 135 134 153 126 167
183 186 191 175 189 216 189 184 189 176 181 176 167 204 165 148 150 151 167 188 190 200 106 203 207 216 203 218 220 203 187 165 181 178 161 134 138 135 131 135 129 139 140 130 130 137 133 134 154
163 165 166 159 169 177 175 173 171 168 149 162 144 144 152 145 80 153 149 133 113 201 199 177 200 211 188 212 193 210 235 188 189 177 176 182 137 136 128 134 177 138 136 141 136 135 131 151 125
148 135 140 149 162 151 156 157 161 208 155 161 160 145 145 159 144 151 138 169 86 148 193 199 181 200 157 159 226 193 218 229 201 188 179 178 181 191 187 146 148 150 139 104 143 150 148 168 169
193 179 143 145 181 150 144 147 213 149 145 153 160 142 148 138 137 133 120 147 143 144 160 164 163 105 115 134 158 218 207 206 192 209 185 179 177 177 192 189 187 170 180 178 163 157 153 171 173
177 221 200 215 230 224 202 231 228 167 216 234 152 210 168 147 165 164 161 135 147 154 94 145 154 166 164 162 188 208 204 197 229 195 206 184 167 175 180 190 190 187 180 179 170 168 173 173 179
232 235 222 238 239 143 144 233 232 143 153 212 139 142 142 158 149 151 164 85 158 165 261 85 141 105 255 301 153 228 194 187 202 208 222 196 183 182 173 177 190 190 187 182 180 177 180 182 176
215 231 226 207 230 211 228 242 239 207 148 138 234 197 224 274 273 256 128 251 133 83 94 91 125 167 178 156 200 151 150 194 189 167 193 211 199 185 177 179 162 189 175 184 181 177 175 179 177
221 226 224 240 228 240 227 238 236 200 263 151 203 264 277 217 168 277 255 242 216 193 148 164 143 97 139 158 321 149 141 169 184 179 179 212 214 194 180 174 175 177 174 175 180 179 174 174 140
235 251 218 219 245 249 238 247 248 256 252 168 254 151 181 193 285 296 204 268 183 304 137 150 89 89 115 161 277 154 151 158 202 207 153 152 208 201 190 181 178 171 171 155 173 177 182 176 172
272 274 252 229 232 243 224 243 250 253 138 242 262 185 256 273 151 310 304 155 298 135 161 158 90 144 144 149 123 108 87 83 88 134 174 205 178 215 203 185 182 180 171 174 161 172 171 166 179
302 287 290 273 261 255 229 225 254 249 235 259 162 266 151 142 330 293 131 286 153 259 149 102 149 151 249 76 129 83 85 186 193 193 198 202 179 164 203 193 178 182 179 174 171 155 172 169 166
346 333 297 287 276 257 237 266 255 220 254 264 255 264 268 273 238 148 291 289 284 184 150 151 154 146 271 285 141 80 198 86 210 200 184 222 217 172 174 210 184 182 89 92 179 172 167 168 171
344 336 332 300 291 281 274 225 263 264 252 238 257 263 261 272 193 294 267 147 165 268 271 288 158 100 102 381 276 136 272 180 166 201 194 200 180 208 184 184 213 196 187 189 178 174 109 106 181
357 353 334 315 278 296 274 269 263 270 260 262 261 261 267 269 156 153 278 282 276 220 153 272 363 264 144 363 192 213 153 227 211 204 220 180 171 189 205 206 178 190 193 175 192 188 182 181 100
363 387 338 332 296 319 276 278 275 268 265 261 261 257 271 267 306 295 282 276 274 263 163 150 344 183 194 138 241 306 149 222 164 216 195 223 133 211 171 142 196 201 186 193 183 186 176 152 179
344 361 328 328 319 309 281 274 277 268 260 253 254 252 274 260 301 293 279 271 128 201 270 290 154 342 172 149 141 179 250 157 152 205 200 211 205 163 184 205 203 185 168 201 170 175 160 168 169
333 340 340 343 319 303 278 268 285 281 272 270 247 252 270 256 298 294 279 266 265 260 260 282 365 355 185 151 180 272 159 157 163 198 194 194 185 196 198 202 180 178 128 161 210 182 185 162 182
310 326 336 341 319 318 294 287 280 278 275 271 245 255 262 282 292 293 278 263 256 208 252 273 346 321 152 266 196 272 253 219 242 148 205 191 201 193 210 204 202 189 142 205 199 202 201 196 182
309 307 312 325 327 308 296 289 277 273 272 279 259 258 257 242 287 289 278 261 252 258 250 276 349 339 261 256 272 214 248 238 209 158 212 210 197 158 197 180 172 176 201 168 174 190 168 199 202
316 306 309 303 314 289 278 273 284 285 274 274 264 251 251 287 279 284 277 262 253 251 249 268 333 376 336 252 250 247 238 249 240 231 140 202 208 185 211 195 189 193 190 200 200 210 204 143 169
318 308 308 308 307 312 310 274 290 279 268 263 258 253 248 279 277 278 271 263 256 252 248 260 329 334 346 250 249 258 162 243 225 229 216 203 197 196 201 201 198 216 188 180 170 188 148 182 177
Wind_Speed
51 53 52 43 46 45 39 44 43 45 44 31 42 40 40 42 45 46 54 37 39 36 44 45 42 42 26 26 22 26 15 41 39 37 35 31 29 28 25 22 21 17 23 27 22 27 24 24 25
51 44 43 42 43 39 43 47 47 45 47 49 43 40 42 47 48 51 57 56 53 49 41 48 43 28 24 19 30 20 21 18 43 40 39 33 32 31 28 26 27 26 25 25 25 23 25 27 25
46 47 45 45 46 45 50 49 46 48 49 52 49 48 47 49 51 52 58 61 57 54 49 49 48 38 25 21 25 25 37 22 45 43 34 38 33 34 32 28 27 26 25 29 26 28 25 26 23
53 53 52 51 50 51 53 54 51 50 52 54 55 52 49 52 54 55 57 63 60 57 55 50 50 49 44 44 25 21 21 20 29 40 44 38 38 34 34 33 33 27 27 26 26 24 26 25 26
57 56 52 51 53 53 56 57 52 55 56 57 57 56 57 55 57 58 57 61 62 61 59 57 52 56 52 33 45 46 44 40 26 40 21 43 42 39 35 36 35 34 32 29 28 27 28 27 28
48 56 60 58 56 54 59 57 58 58 59 59 57 58 59 56 55 55 56 57 61 65 65 62 58 58 56 52 52 34 47 45 25 42 47 35 38 41 39 38 37 36 34 34 31 30 31 30 29
48 51 53 58 63 62 64 62 59 61 62 62 58 56 58 54 54 55 55 55 57 60 63 63 64 60 60 58 54 54 53 51 50 48 28 50 46 30 42 40 38 38 37 36 34 34 29 27 28
46 48 51 54 56 56 59 61 61 61 63 60 54 54 56 57 53 55 57 57 58 62 66 63 63 67 63 62 60 59 56 55 32 45 46 43 47 39 45 44 42 39 39 39 37 37 37 36 35
54 53 54 56 57 58 59 61 60 62 64 55 47 54 53 51 53 48 46 44 41 61 58 60 66 66 63 67 65 61 62 59 56 55 49 49 45 47 41 44 45 45 41 42 40 39 40 39 39
54 55 56 52 59 62 60 60 60 57 60 49 45 60 48 42 42 42 50 57 59 61 44 71 72 67 67 66 66 69 63 57 61 59 53 53 54 51 47 49 42 46 47 42 41 43 43 42 40
52 52 54 51 56 58 57 56 56 55 43 46 41 42 45 43 25 46 46 50 38 62 63 62 74 74 59 69 65 70 63 67 66 62 58 57 56 55 46 50 57 50 47 49 47 47 44 45 39
50 40 42 46 56 49 49 49 53 60 48 49 50 44 44 53 40 46 50 54 38 46 58 65 63 73 46 45 73 66 72 69 72 65 63 61 60 60 60 56 57 55 51 37 52 51 50 51 47
59 58 51 51 59 52 44 44 63 45 45 47 52 44 48 45 43 46 43 50 48 44 45 50 55 47 43 43 47 73 75 71 70 74 65 65 63 63 61 61 61 60 58 58 55 54 53 54 51
60 64 62 65 64 66 61 65 64 50 60 65 48 59 49 50 60 59 56 48 50 48 41 48 55 57 48 54 60 71 75 70 74 67 71 69 62 64 63 62 61 61 60 59 57 56 55 56 53
64 64 66 67 67 48 49 67 68 44 54 63 44 50 50 60 53 54 59 33 50 52 60 27 53 37 85 76 50 81 68 61 70 71 77 71 70 67 64 65 62 62 62 60 59 57 55 55 55
66 65 68 64 69 67 65 68 75 62 50 47 66 60 58 70 68 62 40 54 42 36 40 35 43 56 53 47 65 55 60 69 65 57 70 76 73 70 68 67 63 63 62 62 60 58 57 56 56
70 71 72 71 73 68 60 66 80 59 66 57 62 66 62 59 62 63 53 57 54 51 51 45 51 41 49 52 78 60 56 65 67 68 66 77 77 74 70 71 70 67 66 64 61 60 59 57 50
70 71 72 72 75 69 64 64 72 75 65 56 66 57 58 60 57 52 56 55 51 55 50 44 36 36 41 57 72 62 63 59 78 77 63 64 76 75 76 73 73 68 67 61 63 62 60 59 59
79 78 71 76 79 69 67 64 71 75 54 66 64 53 60 59 55 51 51 51 53 51 51 54 43 56 54 57 42 38 35 32 38 46 69 81 70 77 78 77 74 72 70 71 63 63 60 61 62
73 79 74 79 80 68 69 66 72 73 66 63 60 62 54 54 46 50 48 51 54 54 54 48 53 50 72 28 49 34 35 79 89 77 75 77 74 70 80 78 75 75 74 72 69 63 65 65 63
58 62 76 78 81 71 65 64 74 70 65 59 63 60 56 54 50 53 51 50 50 55 55 55 56 49 49 85 48 30 76 39 99 90 78 65 77 71 74 79 76 78 45 49 74 72 68 66 66
55 56 60 73 78 75 72 64 71 75 61 61 62 59 56 53 52 50 51 54 52 49 50 49 58 39 39 48 88 51 105 73 59 96 88 78 77 85 85 76 80 81 79 78 73 69 48 42 71
50 53 55 64 70 70 65 70 70 74 59 59 61 57 54 53 54 54 52 48 45 48 59 46 27 49 46 57 65 65 61 95 104 104 87 81 67 87 78 76 74 79 80 79 80 77 76 79 45
42 45 57 62 65 61 61 71 65 68 61 57 59 54 53 52 47 51 50 48 44 42 57 54 25 50 54 47 83 104 54 101 57 109 97 93 46 93 74 53 71 82 79 82 81 81 73 50 77
40 40 52 56 58 54 61 62 65 64 59 57 55 53 53 54 48 49 50 47 63 47 42 40 54 31 52 52 56 63 110 55 51 90 102 95 95 59 81 81 82 75 60 81 73 79 63 67 66
39 40 45 48 53 54 57 57 63 65 62 61 52 53 52 54 48 49 49 48 43 37 39 37 22 28 46 58 67 105 61 52 57 88 97 101 83 98 97 93 78 75 58 62 79 80 82 57 73
43 41 41 44 48 53 57 57 61 60 60 59 52 53 52 50 49 47 48 47 43 48 36 36 19 28 55 93 71 112 117 93 114 46 110 93 103 94 98 95 93 86 54 80 76 77 78 77 79
45 44 43 42 44 49 52 55 59 57 60 58 52 49 53 52 49 46 47 44 44 39 33 33 16 22 39 95 103 87 116 113 95 56 112 110 102 63 103 68 57 63 88 66 67 79 67 79 75
45 43 45 45 45 46 48 54 60 58 59 56 53 49 53 47 48 45 46 44 42 40 33 29 17 14 26 99 99 112 109 119 119 117 51 108 110 82 97 92 83 77 79 89 80 77 80 75 62
49 46 46 46 45 45 47 56 60 58 59 53 50 50 53 50 50 48 47 45 42 41 36 26 13 14 24 100 102 119 63 116 107 113 113 112 105 105 111 105 95 100 81 73 67 81 66 65 69
Wind_Direction
245 247 247 247 246 246 246 248 247 248 247 235 243 243 244 247 248 248 252 222 239 236 241 242 240 239 221 223 205 223 200 232 229 226 225 220 219 226 227 234 239 237 242 239 232 229 238 246 245
247 247 247 246 247 244 245 246 248 248 249 250 244 239 242 243 246 246 251 251 248 243 239 243 241 212 200 208 226 210 211 212 233 230 228 222 220 222 229 227 230 233 222 243 236 238 239 239 242
249 248 249 248 247 245 245 246 246 247 249 252 251 250 247 248 247 243 248 252 248 247 241 244 244 233 208 207 220 223 235 212 232 232 228 228 223 229 225 230 228 225 225 242 242 242 240 242 249
248 247 247 247 247 247 248 248 248 251 251 251 252 250 248 249 246 245 244 249 250 248 247 239 244 244 235 237 216 216 228 221 223 236 230 227 229 230 227 226 228 234 244 231 234 237 249 251 247
247 247 249 250 248 248 249 250 251 250 251 252 253 252 251 246 243 243 241 246 249 249 246 244 239 242 241 224 235 238 236 235 233 229 219 230 229 228 232 230 229 230 234 239 241 241 252 253 249
251 247 248 249 249 248 252 251 252 252 252 252 252 253 255 251 247 245 241 238 240 245 246 245 240 239 239 237 238 226 237 239 230 234 234 233 232 234 233 234 236 235 234 238 242 246 247 248 250
251 250 250 251 248 249 250 251 251 252 256 254 255 255 255 248 242 240 242 235 238 242 243 241 242 238 241 238 237 238 236 235 239 237 237 232 235 238 239 239 237 237 238 239 240 245 254 255 256
253 254 254 254 254 254 255 256 256 257 257 255 250 251 246 245 242 240 241 239 230 238 244 242 241 239 235 239 236 234 237 237 225 239 238 238 240 241 244 242 243 243 242 243 243 245 250 253 255
255 243 244 246 248 248 247 249 251 250 250 246 245 244 244 245 246 241 242 241 240 232 242 246 238 237 235 234 236 235 234 236 235 234 239 240 239 245 243 249 248 247 247 247 247 247 253 246 259
249 248 247 248 245 253 242 245 244 248 248 245 244 248 246 233 238 242 248 240 243 237 232 238 242 234 236 232 232 234 233 239 234 234 235 240 242 243 244 248 248 250 249 248 249 252 250 251 257
249 247 248 248 248 249 248 247 249 248 246 243 240 240 244 232 224 244 238 236 236 242 233 245 242 239 242 232 232 232 229 232 234 236 235 232 240 241 240 245 238 252 253 253 253 253 252 256 252
257 257 258 256 250 255 253 249 249 257 247 244 242 242 242 247 235 242 241 247 242 234 240 236 241 244 234 234 229 234 231 226 231 232 236 234 233 232 231 244 249 248 250 242 255 253 254 256 257
259 257 255 257 255 256 254 251 259 247 247 246 243 243 243 239 235 231 234 241 242 232 228 235 243 232 229 231 237 228 231 230 233 231 232 237 235 235 233 233 235 242 239 241 247 250 253 256 257
262 260 257 257 259 257 257 260 257 250 257 261 245 255 252 246 248 248 247 242 245 242 226 235 241 243 240 238 235 231 232 233 224 233 229 233 239 236 236 235 235 237 239 241 245 248 251 254 256
259 262 261 264 265 259 253 263 262 239 248 257 244 248 248 249 248 248 248 222 243 245 249 239 241 231 232 226 234 226 237 238 231 230 226 230 234 234 238 238 235 236 239 240 242 245 248 250 254
266 263 263 261 261 260 263 265 264 252 242 242 265 258 259 271 270 261 234 254 237 218 221 248 236 244 239 237 231 232 242 238 235 235 234 230 229 232 235 236 242 234 237 239 241 242 245 248 251
267 263 263 263 263 260 258 261 265 256 263 249 258 268 271 261 251 269 259 255 249 246 244 244 223 223 245 238 221 237 244 238 232 231 237 231 228 230 233 237 238 237 239 238 239 241 244 247 253
263 261 260 261 261 259 260 260 264 264 264 253 266 246 252 253 270 267 253 255 245 254 229 240 231 225 217 245 225 240 243 244 233 232 232 236 232 228 232 235 237 240 241 247 241 240 243 246 249
260 258 258 256 256 256 259 259 261 263 240 266 268 251 267 272 245 266 260 244 258 233 244 246 223 238 241 246 243 243 238 251 249 251 233 233 234 230 229 235 237 238 241 242 249 244 244 248 249
265 258 253 252 257 256 257 260 262 261 263 264 243 268 239 236 270 261 229 258 241 254 238 227 239 242 227 239 228 240 243 218 229 233 230 230 234 234 231 231 240 239 239 241 244 249 245 246 253
275 262 252 251 254 256 252 255 259 254 261 261 263 266 268 268 256 239 260 260 263 246 238 239 241 237 239 219 231 241 212 248 227 232 233 219 229 235 235 231 235 239 257 259 242 245 249 249 247
270 262 253 252 252 253 258 250 256 258 259 257 261 264 264 266 244 262 256 237 240 263 263 272 241 228 237 220 211 248 204 237 247 227 230 219 238 227 234 234 230 234 237 239 241 244 263 267 248
272 256 249 252 256 251 253 254 250 257 256 259 259 261 265 265 246 235 259 260 259 251 243 265 267 246 235 211 225 219 250 211 218 223 207 236 236 230 224 223 236 231 233 240 240 240 243 246 272
272 262 250 245 253 247 248 251 247 254 256 257 258 259 267 263 264 258 257 260 261 260 241 238 260 240 242 234 210 196 246 213 241 218 231 216 233 226 235 235 230 227 236 234 239 240 246 257 250
275 269 254 249 245 244 248 253 250 251 253 255 257 257 265 258 260 255 257 258 231 243 272 293 241 248 239 238 242 235 204 237 248 223 225 219 226 229 236 224 224 234 238 230 241 246 251 249 255
271 266 260 253 243 241 247 250 249 250 252 255 251 256 258 255 256 252 253 257 259 258 267 292 252 242 230 227 224 197 245 231 246 219 229 231 241 235 236 230 243 238 247 254 232 242 244 260 252
271 264 261 257 246 240 241 242 247 250 251 252 241 253 254 255 253 249 249 253 257 245 259 282 260 233 236 198 221 196 203 213 206 244 222 233 228 237 228 233 230 240 246 230 233 236 240 244 252
263 262 259 255 248 242 238 240 243 245 249 249 248 249 251 248 250 248 247 248 253 256 253 287 310 229 222 201 198 203 204 208 214 235 219 220 232 239 237 247 247 250 234 244 248 247 245 244 243
263 256 255 254 251 242 238 239 241 238 242 243 245 246 248 248 247 246 245 244 248 251 246 278 286 275 206 202 202 202 208 207 208 210 244 225 222 244 227 240 249 238 247 238 242 241 243 253 252
256 257 252 249 245 243 238 236 238 237 239 241 243 244 246 243 242 240 240 239 241 246 245 256 272 268 213 203 203 200 240 207 214 211 214 223 233 236 235 235 241 236 250 248 253 249 246 254 261